TimeCDT,TemperatureF,Dew PointF,Humidity,Sea Level PressureIn,VisibilityMPH,Wind Direction,Wind SpeedMPH,Gust SpeedMPH,PrecipitationIn,Events,Conditions,WindDirDegrees,DateUTC
12:15 AM,54.5,52.9,94,30.05,10.0,SSW,8.1,18.4,N/A,Rain-Thunderstorm,Light Thunderstorms and Rain,210,2013-03-30 05:15:00
12:35 AM,54.1,52.9,95,30.05,7.0,SSW,8.1,-,0.06,Rain-Thunderstorm,Rain,200,2013-03-30 05:35:00
12:55 AM,54.7,53.1,94,30.01,2.5,South,23.0,-,0.36,Rain-Thunderstorm,Heavy Thunderstorms and Rain,170,2013-03-30 05:55:00
1:15 AM,54.5,52.9,94,29.98,2.5,SSE,24.2,-,0.11,Rain,Heavy Rain,160,2013-03-30 06:15:00
1:35 AM,53.2,51.8,95,29.97,10.0,SSE,21.9,27.6,0.13,Thunderstorm,Mostly Cloudy,150,2013-03-30 06:35:00
1:55 AM,53.2,52.0,95,29.97,10.0,SSE,19.6,25.3,0.13,,Clear,160,2013-03-30 06:55:00
2:15 AM,52.9,51.8,96,29.97,10.0,SSE,16.1,23.0,N/A,,Clear,160,2013-03-30 07:15:00
2:35 AM,53.1,52.0,96,29.96,10.0,SSE,16.1,23.0,N/A,,Clear,160,2013-03-30 07:35:00
2:55 AM,53.8,52.5,95,29.96,10.0,SSE,15.0,-,N/A,,Clear,160,2013-03-30 07:55:00
3:15 AM,53.6,52.0,94,29.96,10.0,South,15.0,-,N/A,,Clear,170,2013-03-30 08:15:00
3:35 AM,53.2,51.8,95,29.95,10.0,South,13.8,20.7,N/A,,Clear,170,2013-03-30 08:35:00
3:55 AM,52.7,51.8,97,29.93,10.0,South,16.1,-,N/A,,Clear,170,2013-03-30 08:55:00
4:15 AM,51.8,51.3,98,29.93,10.0,South,8.1,-,N/A,Thunderstorm,Clear,180,2013-03-30 09:15:00
4:35 AM,51.8,51.4,99,29.93,10.0,South,11.5,-,N/A,Thunderstorm,Clear,170,2013-03-30 09:35:00
4:55 AM,50.9,50.9,100,29.92,7.0,South,8.1,-,N/A,,Clear,170,2013-03-30 09:55:00
5:15 AM,50.9,50.9,100,29.92,7.0,South,5.8,-,N/A,,Clear,180,2013-03-30 10:15:00
5:35 AM,50.0,50.0,100,29.92,5.0,South,3.5,-,N/A,,Clear,180,2013-03-30 10:35:00
5:55 AM,48.2,48.2,100,29.94,2.0,ENE,4.6,-,N/A,,Overcast,70,2013-03-30 10:55:00
6:15 AM,48.0,48.0,100,29.95,1.5,ENE,9.2,-,N/A,,Overcast,60,2013-03-30 11:15:00
6:35 AM,49.1,49.1,100,29.95,3.0,East,6.9,-,N/A,,Overcast,90,2013-03-30 11:35:00
6:55 AM,50.5,50.5,100,29.96,5.0,ESE,3.5,-,N/A,,Overcast,120,2013-03-30 11:55:00
7:15 AM,50.5,50.5,100,29.96,5.0,Calm,Calm,-,N/A,,Overcast,0,2013-03-30 12:15:00
7:35 AM,50.2,50.2,100,29.97,4.0,Calm,Calm,-,N/A,Thunderstorm,Overcast,0,2013-03-30 12:35:00
7:55 AM,50.4,50.4,100,29.97,3.0,Calm,Calm,-,N/A,,Overcast,0,2013-03-30 12:55:00
8:15 AM,50.5,50.5,100,29.97,3.0,Calm,Calm,-,N/A,,Overcast,0,2013-03-30 13:15:00
8:35 AM,50.5,50.5,100,29.97,2.5,Calm,Calm,-,N/A,,Overcast,0,2013-03-30 13:35:00
8:55 AM,51.1,51.1,100,29.99,3.0,North,10.4,-,N/A,,Overcast,350,2013-03-30 13:55:00
9:15 AM,51.4,51.4,100,29.99,4.0,NNW,5.8,-,N/A,,Overcast,340,2013-03-30 14:15:00
9:35 AM,52.5,52.5,100,29.99,4.0,North,5.8,-,N/A,,Overcast,350,2013-03-30 14:35:00
9:55 AM,53.6,53.6,100,29.99,5.0,NNW,4.6,-,N/A,,Overcast,330,2013-03-30 14:55:00
10:15 AM,54.5,54.5,100,29.98,5.0,NW,3.5,-,N/A,,Overcast,310,2013-03-30 15:15:00
10:35 AM,56.8,55.0,94,29.98,7.0,North,6.9,-,N/A,,Scattered Clouds,350,2013-03-30 15:35:00
10:55 AM,57.9,54.0,87,29.98,10.0,NNW,9.2,-,N/A,,Mostly Cloudy,340,2013-03-30 15:55:00
11:15 AM,58.1,53.1,83,29.98,10.0,North,11.5,16.1,N/A,,Mostly Cloudy,360,2013-03-30 16:15:00
11:35 AM,58.5,52.7,81,29.98,10.0,NNW,9.2,-,N/A,,Scattered Clouds,340,2013-03-30 16:35:00
11:55 AM,59.4,52.0,77,29.99,10.0,NW,11.5,-,N/A,,Scattered Clouds,320,2013-03-30 16:55:00
12:15 PM,61.0,51.4,71,29.99,10.0,North,9.2,-,N/A,,Scattered Clouds,350,2013-03-30 17:15:00
12:35 PM,61.9,49.6,64,29.98,10.0,NNW,12.7,17.3,N/A,,Scattered Clouds,340,2013-03-30 17:35:00
12:55 PM,63.1,45.3,52,29.98,10.0,NNE,15.0,-,N/A,,Clear,20,2013-03-30 17:55:00
1:15 PM,64.2,45.1,50,29.97,10.0,North,11.5,20.7,N/A,,Clear,360,2013-03-30 18:15:00
1:35 PM,64.6,41.2,42,29.97,10.0,North,17.3,-,N/A,,Clear,360,2013-03-30 18:35:00
1:55 PM,64.9,40.6,41,29.97,10.0,North,16.1,20.7,N/A,,Clear,10,2013-03-30 18:55:00
2:15 PM,64.9,39.7,40,29.97,10.0,North,15.0,23.0,N/A,,Clear,10,2013-03-30 19:15:00
2:35 PM,65.5,39.2,38,29.96,10.0,North,16.1,20.7,N/A,,Scattered Clouds,10,2013-03-30 19:35:00
2:55 PM,65.3,37.8,36,29.96,10.0,North,16.1,20.7,N/A,,Clear,10,2013-03-30 19:55:00
3:15 PM,64.8,39.7,40,29.96,10.0,North,13.8,19.6,N/A,,Scattered Clouds,350,2013-03-30 20:15:00
3:35 PM,65.1,37.8,36,29.95,10.0,North,13.8,-,N/A,,Scattered Clouds,10,2013-03-30 20:35:00
3:55 PM,64.9,38.7,38,29.95,10.0,North,16.1,-,N/A,,Clear,360,2013-03-30 20:55:00
4:15 PM,65.3,37.8,36,29.95,10.0,NNE,15.0,21.9,N/A,,Clear,20,2013-03-30 21:15:00
4:35 PM,64.6,35.8,34,29.96,10.0,North,12.7,23.0,N/A,,Scattered Clouds,360,2013-03-30 21:35:00
4:55 PM,64.6,35.1,33,29.96,10.0,North,13.8,-,N/A,,Mostly Cloudy,350,2013-03-30 21:55:00
5:15 PM,63.5,36.1,36,29.95,10.0,North,15.0,-,N/A,,Mostly Cloudy,10,2013-03-30 22:15:00
5:35 PM,64.4,34.3,33,29.95,10.0,North,13.8,-,N/A,,Scattered Clouds,10,2013-03-30 22:35:00
5:55 PM,62.6,36.5,38,29.95,10.0,NNW,11.5,-,N/A,,Mostly Cloudy,340,2013-03-30 22:55:00
6:15 PM,61.5,38.1,42,29.95,10.0,NNW,6.9,10.4,N/A,,Overcast,340,2013-03-30 23:15:00
6:35 PM,60.6,37.2,42,29.96,10.0,NNW,9.2,20.7,N/A,,Overcast,340,2013-03-30 23:35:00
6:55 PM,58.8,39.0,48,29.96,10.0,WNW,9.2,-,N/A,,Overcast,300,2013-03-30 23:55:00
7:15 PM,57.4,39.2,51,29.96,10.0,West,12.7,-,N/A,,Overcast,280,2013-03-31 00:15:00
7:35 PM,56.7,38.8,51,29.96,10.0,WSW,10.4,16.1,N/A,Rain,Light Rain,250,2013-03-31 00:35:00
7:55 PM,52.9,44.2,72,29.97,10.0,West,11.5,-,N/A,,Overcast,270,2013-03-31 00:55:00
8:15 PM,52.3,45.1,76,29.97,10.0,West,9.2,-,N/A,,Overcast,260,2013-03-31 01:15:00
8:35 PM,50.9,46.4,85,29.98,10.0,WNW,9.2,-,N/A,,Overcast,300,2013-03-31 01:35:00
8:55 PM,51.1,46.4,84,29.99,10.0,WNW,9.2,-,N/A,Rain,Light Rain,300,2013-03-31 01:55:00
9:15 PM,51.1,46.4,84,30.00,10.0,NW,8.1,-,N/A,,Overcast,310,2013-03-31 02:15:00
9:35 PM,50.9,46.0,83,30.00,10.0,NW,9.2,-,N/A,,Overcast,310,2013-03-31 02:35:00
9:55 PM,49.8,45.9,86,30.01,10.0,WNW,8.1,-,N/A,,Scattered Clouds,300,2013-03-31 02:55:00
10:15 PM,50.0,46.4,87,30.01,10.0,WNW,10.4,-,N/A,,Mostly Cloudy,300,2013-03-31 03:15:00
10:35 PM,50.4,46.6,87,30.01,10.0,WNW,10.4,-,N/A,,Overcast,290,2013-03-31 03:35:00
10:55 PM,50.4,46.6,87,30.02,10.0,WNW,10.4,-,N/A,,Overcast,290,2013-03-31 03:55:00
11:15 PM,50.0,46.8,89,30.02,10.0,WNW,8.1,-,N/A,,Overcast,290,2013-03-31 04:15:00
11:35 PM,49.6,46.8,90,30.02,10.0,West,9.2,-,N/A,,Overcast,280,2013-03-31 04:35:00
11:55 PM,49.3,46.8,91,30.02,10.0,West,5.8,-,N/A,,Overcast,280,2013-03-31 04:55:00